Overview Statistics Trail Chart Weather Telemetry Raw packets
 

This is the latest recevied weather packets stored in our database for station/object DK0KTL-4. If no packets are shown the sender has not sent any weather packets the latest 10 day(s).

<< 94 95 96 97 98 99 100 >>
Time Temp. Humidity Pressure Rain* Wind** Luminosity Snow
1787824759 25.56° C 62% 1015.7 hPa 0 mm - - -
1787824460 25.56° C 69% 1015.9 hPa 0 mm - - -
1787824159 25.56° C 68% 1015.8 hPa 0 mm - - -
1787823859 25° C 64% 1016.1 hPa 0 mm - - -
1787823558 25° C 68% 1016 hPa 0 mm - - -
1787823258 24.44° C 70% 1016.1 hPa 0 mm - - -
1787822958 24.44° C 67% 1016.1 hPa 0 mm - - -
1787822658 24.44° C 68% 1016.1 hPa 0 mm - - -
1787822357 23.89° C 72% 1016.1 hPa 0 mm - - -
1787822057 23.89° C 68% 1015.9 hPa 0 mm - - -
1787821757 23.33° C 68% 1015.9 hPa 0 mm - - -
1787821457 23.33° C 74% 1016 hPa 0 mm - - -
1787821156 22.78° C 72% 1016.2 hPa 0 mm - - -
1787820856 22.22° C 77% 1016.1 hPa 0 mm - - -
1787820556 21.67° C 74% 1016.1 hPa 0 mm - - -
1787820255 21.67° C 79% 1016.2 hPa 0 mm - - -
1787819655 20.56° C 83% 1016.2 hPa 0 mm - - -
1787819354 20° C 82% 1016 hPa 0 mm - - -
1787819054 20° C 82% 1016.3 hPa 0 mm - - -
1787818454 18.89° C 85% 1016.3 hPa 0 mm - - -
1787818153 18.89° C 88% 1016.3 hPa 0 mm - - -
1787817853 17.78° C 90% 1016.3 hPa 0 mm - - -
1787817553 17.22° C 91% 1016.2 hPa 0 mm - - -
1787817252 16.67° C 94% 1016.2 hPa 0 mm - - -
1787816952 16.11° C 95% 1016.2 hPa 0 mm - - -

* Rain latest hour (hover to see other rain measurements)
** Current wind speed in m/s (hover to see current wind gust speed)